Location: Eastview
(35.0756°N, 88.5453°W)
Time: 22:30:24
(UTC+00:00)

GEOS 3 Rocket - Pass Details

Date: 22 November 2019
Orbit: 786 x 833 km, 115.0° (Epoch: 09 December)

Event Time Altitude Azimuth Distance (km) Brightness Sun altitude
Exits shadow 23:21:06 - 39° (NE) 2,893 6.0 -7.7°
Reaches altitude 10° 23:22:19 10° 42° (NE) 2,415 5.5 -7.9°
Maximum altitude 23:27:29 57° 121° (ESE) 969 3.8 -8.9°
Drops below altitude 10° 23:32:39 10° 199° (SSW) 2,425 6.6 -10.0°
Sets 23:35:00 0° 203° (SSW) 3,358 7.5 -10.4°
